When you browse on this site, cookies collect data to enhance your experience and personalize the content and advertising you see.
Visit our Privacy Policy to learn more. By continuing to use the site, you agree to this use of cookies and data.
  • En España
  • Lista de países
  • Para 7 días
  • Temperatura del agua
  • Mapa Satelital
  • El tiempo en el mapa
  • Informadores
  • user-avatar
    Iniciar sesión

    Tiempo cada hora Hajfa

    Hoy, 17 Febrero, Domingo

    Tiempo Temperatura Precipitaciones Viento Presión Humedad
    00:00 +11°C° 0.7 mm 3 mps 763 mmHg 82%
    01:00 +11°C° 0.7 mm 3 mps 763 mmHg 83%
    02:00 +11°C° 0 mm 3 mps 762 mmHg 82%
    03:00 +10°C° 0.3 mm 3 mps 762 mmHg 83%
    04:00 +10°C° 0.3 mm 3 mps 763 mmHg 83%
    05:00 +10°C° 0.3 mm 3 mps 763 mmHg 84%
    06:00 +10°C° 0.3 mm 3 mps 763 mmHg 83%
    07:00 +11°C° 0.3 mm 3 mps 763 mmHg 81%
    08:00 +11°C° 0 mm 3 mps 763 mmHg 79%
    09:00 +12°C° 0.1 mm 4 mps 763 mmHg 74%
    10:00 +14°C° 0.1 mm 4 mps 763 mmHg 69%
    11:00 +15°C° 0.1 mm 5 mps 762 mmHg 65%
    12:00 +15°C° 0.6 mm 5 mps 762 mmHg 65%
    13:00 +15°C° 0.6 mm 5 mps 762 mmHg 66%
    14:00 +15°C° 0.6 mm 6 mps 762 mmHg 67%
    15:00 +14°C° 0.4 mm 5 mps 761 mmHg 69%
    16:00 +14°C° 0.4 mm 5 mps 761 mmHg 72%
    17:00 +13°C° 0.4 mm 4 mps 761 mmHg 74%
    18:00 +12°C° 0.2 mm 4 mps 761 mmHg 73%
    19:00 +12°C° 0.2 mm 3 mps 761 mmHg 73%
    20:00 +11°C° 0.2 mm 3 mps 761 mmHg 73%
    21:00 +11°C° 0.1 mm 3 mps 761 mmHg 74%
    22:00 +11°C° 0.1 mm 3 mps 761 mmHg 76%
    23:00 +10°C° 0.1 mm 3 mps 761 mmHg 77%

    Mañana, 18 Febrero, Lunes

    Tiempo Temperatura Precipitaciones Viento Presión Humedad
    00:00 +10°C° 0.1 mm 3 mps 761 mmHg 77%
    01:00 +10°C° 0.1 mm 3 mps 761 mmHg 76%
    02:00 +8°C° 0.1 mm 4 mps 761 mmHg 76%
    03:00 +9°C° 0.1 mm 3 mps 761 mmHg 76%
    04:00 +9°C° 0.1 mm 3 mps 761 mmHg 76%
    05:00 +9°C° 0.1 mm 3 mps 760 mmHg 76%
    06:00 +10°C° 0 mm 3 mps 761 mmHg 74%
    07:00 +10°C° 0 mm 3 mps 761 mmHg 73%
    08:00 +11°C° 0 mm 3 mps 761 mmHg 71%
    09:00 +12°C° 0 mm 3 mps 761 mmHg 68%
    10:00 +13°C° 0 mm 3 mps 761 mmHg 64%
    11:00 +14°C° 0 mm 3 mps 761 mmHg 61%
    12:00 +14°C° 0 mm 3 mps 760 mmHg 60%
    13:00 +16°C° 0 mm 3 mps 760 mmHg 60%
    14:00 +16°C° 0 mm 2 mps 760 mmHg 59%
    15:00 +14°C° 0 mm 3 mps 760 mmHg 63%
    16:00 +14°C° 0 mm 3 mps 760 mmHg 67%
    17:00 +13°C° 0 mm 3 mps 760 mmHg 72%
    18:00 +12°C° 0 mm 3 mps 760 mmHg 73%
    19:00 +12°C° 0 mm 3 mps 760 mmHg 74%
    20:00 +12°C° 0 mm 2 mps 761 mmHg 75%
    21:00 +12°C° 0 mm 2 mps 761 mmHg 76%
    22:00 +12°C° 0 mm 1 mps 761 mmHg 77%
    23:00 +11°C° 0 mm 1 mps 761 mmHg 78%

    Pasado mañana, 19 Febrero, Martes

    Tiempo Temperatura Precipitaciones Viento Presión Humedad
    00:00 +11°C° 0 mm 1 mps 761 mmHg 78%
    01:00 +10°C° 0 mm 0 mps 762 mmHg 78%
    02:00 +10°C° 0 mm 0 mps 762 mmHg 79%
    03:00 +11°C° 0 mm 1 mps 761 mmHg 79%
    04:00 +11°C° 0 mm 1 mps 761 mmHg 79%
    05:00 +12°C° 0 mm 1 mps 761 mmHg 79%
    06:00 +12°C° 0.1 mm 1 mps 762 mmHg 79%
    07:00 +13°C° 0.1 mm 2 mps 762 mmHg 79%
    08:00 +13°C° 0.1 mm 2 mps 762 mmHg 79%
    09:00 +14°C° 0.1 mm 2 mps 763 mmHg 78%
    10:00 +14°C° 0.1 mm 2 mps 763 mmHg 77%
    11:00 +14°C° 0.1 mm 3 mps 763 mmHg 76%
    12:00 +16°C° 0.2 mm 3 mps 763 mmHg 75%
    13:00 +15°C° 0.2 mm 4 mps 762 mmHg 75%
    14:00 +15°C° 0.2 mm 4 mps 762 mmHg 74%
    15:00 +15°C° 0.2 mm 4 mps 762 mmHg 76%
    16:00 +15°C° 0.2 mm 4 mps 762 mmHg 78%
    17:00 +14°C° 0.2 mm 4 mps 762 mmHg 81%
    18:00 +14°C° 0 mm 4 mps 762 mmHg 81%
    19:00 +13°C° 0 mm 3 mps 763 mmHg 81%
    20:00 +13°C° 0 mm 3 mps 763 mmHg 81%
    21:00 +13°C° 0.1 mm 3 mps 763 mmHg 81%
    22:00 +13°C° 0.1 mm 3 mps 763 mmHg 81%
    23:00 +13°C° 0.1 mm 3 mps 763 mmHg 81%

    20 Febrero, Miércoles

    Tiempo Temperatura Precipitaciones Viento Presión Humedad
    00:00 +13°C° 0.1 mm 3 mps 763 mmHg 81%
    01:00 +13°C° 0.1 mm 3 mps 763 mmHg 80%
    02:00 +12°C° 0.1 mm 4 mps 763 mmHg 80%
    03:00 +12°C° 0.1 mm 3 mps 763 mmHg 80%
    04:00 +12°C° 0.1 mm 3 mps 763 mmHg 80%
    05:00 +12°C° 0.1 mm 3 mps 763 mmHg 80%
    06:00 +12°C° 0.1 mm 3 mps 763 mmHg 80%
    07:00 +13°C° 0.1 mm 3 mps 763 mmHg 80%
    08:00 +13°C° 0.1 mm 3 mps 763 mmHg 80%
    09:00 +14°C° 0.1 mm 3 mps 764 mmHg 77%
    10:00 +16°C° 0.1 mm 3 mps 764 mmHg 74%
    11:00 +17°C° 0.1 mm 3 mps 764 mmHg 70%
    12:00 +17°C° 0.1 mm 4 mps 763 mmHg 69%
    13:00 +17°C° 0.1 mm 4 mps 763 mmHg 67%
    14:00 +17°C° 0.1 mm 4 mps 763 mmHg 66%
    15:00 +15°C° 0 mm 4 mps 763 mmHg 68%
    16:00 +16°C° 0 mm 3 mps 763 mmHg 69%
    17:00 +14°C° 0 mm 3 mps 763 mmHg 71%
    18:00 +14°C° 0 mm 3 mps 763 mmHg 72%
    19:00 +14°C° 0 mm 2 mps 763 mmHg 73%
    20:00 +13°C° 0 mm 2 mps 764 mmHg 74%
    21:00 +13°C° 0 mm 2 mps 764 mmHg 75%
    22:00 +13°C° 0 mm 2 mps 764 mmHg 75%
    23:00 +13°C° 0 mm 2 mps 764 mmHg 76%

    21 Febrero, Jueves

    Tiempo Temperatura Precipitaciones Viento Presión Humedad
    00:00 +13°C° 0 mm 2 mps 763 mmHg 77%
    01:00 +13°C° 0 mm 2 mps 763 mmHg 78%
    02:00 +13°C° 0 mm 2 mps 763 mmHg 79%
    03:00 +11°C° 0 mm 3 mps 763 mmHg 80%
    04:00 +11°C° 0 mm 3 mps 763 mmHg 81%
    05:00 +11°C° 0 mm 3 mps 763 mmHg 82%
    06:00 +12°C° 0 mm 3 mps 763 mmHg 81%
    07:00 +12°C° 0 mm 3 mps 763 mmHg 79%
    08:00 +13°C° 0 mm 3 mps 764 mmHg 78%
    09:00 +14°C° 0.1 mm 3 mps 764 mmHg 75%
    10:00 +16°C° 0.1 mm 3 mps 764 mmHg 73%
    11:00 +17°C° 0.1 mm 4 mps 764 mmHg 71%
    12:00 +17°C° 0.2 mm 4 mps 763 mmHg 71%
    13:00 +17°C° 0.2 mm 4 mps 763 mmHg 72%
    14:00 +16°C° 0.2 mm 5 mps 762 mmHg 72%
    15:00 +17°C° 0.1 mm 4 mps 762 mmHg 74%
    16:00 +16°C° 0.1 mm 3 mps 762 mmHg 76%
    17:00 +14°C° 0.1 mm 3 mps 762 mmHg 78%
    18:00 +15°C° 0 mm 2 mps 763 mmHg 78%
    19:00 +14°C° 0 mm 2 mps 763 mmHg 78%
    20:00 +14°C° 0 mm 2 mps 763 mmHg 78%
    21:00 +14°C° 0 mm 1 mps 763 mmHg 79%
    22:00 +13°C° 0 mm 1 mps 763 mmHg 79%
    23:00 +13°C° 0 mm 1 mps 763 mmHg 80%

    22 Febrero, Viernes

    Tiempo Temperatura Precipitaciones Viento Presión Humedad
    00:00 +13°C° 0 mm 1 mps 763 mmHg 80%
    01:00 +13°C° 0 mm 1 mps 763 mmHg 81%
    02:00 +11°C° 0 mm 0 mps 763 mmHg 82%
    03:00 +12°C° 0 mm 1 mps 763 mmHg 83%
    04:00 +12°C° 0 mm 1 mps 763 mmHg 84%
    05:00 +12°C° 0 mm 1 mps 763 mmHg 86%
    06:00 +13°C° 0.1 mm 1 mps 763 mmHg 85%
    07:00 +14°C° 0.1 mm 2 mps 763 mmHg 84%
    08:00 +14°C° 0.1 mm 2 mps 763 mmHg 83%
    09:00 +15°C° 0.1 mm 2 mps 763 mmHg 80%
    10:00 +16°C° 0.1 mm 2 mps 763 mmHg 77%
    11:00 +17°C° 0.1 mm 2 mps 763 mmHg 74%
    12:00 +17°C° 0.2 mm 2 mps 763 mmHg 74%
    13:00 +17°C° 0.2 mm 2 mps 762 mmHg 73%
    14:00 +17°C° 0.2 mm 3 mps 761 mmHg 73%
    15:00 +17°C° 0 mm 3 mps 761 mmHg 75%
    16:00 +16°C° 0 mm 2 mps 761 mmHg 77%
    17:00 +16°C° 0 mm 2 mps 761 mmHg 79%
    18:00 +15°C° 0 mm 2 mps 761 mmHg 79%
    19:00 +14°C° 0 mm 2 mps 762 mmHg 80%
    20:00 +14°C° 0 mm 1 mps 762 mmHg 81%
    21:00 +13°C° 0 mm 1 mps 762 mmHg 81%
    22:00 +13°C° 0 mm 1 mps 762 mmHg 82%
    23:00 +13°C° 0 mm 1 mps 761 mmHg 83%
    Mostrar más